Location: Unspecified
(0.0000°N, 0.0000°E)
Time: 18:40:02
(UTC+00:00)

ISS - Pass Details

Date: 16 October 2021
Orbit: 417 x 423 km, 51.6° (Epoch: 24 October)

Event Time Altitude Azimuth Distance (km) Brightness Sun altitude
Rises 04:41:18 0° 199° (SSW) 2,368 0.0 -15.9°
Reaches altitude 10° 04:43:35 10° 187° (S) 1,500 -0.9 -15.3°
Maximum altitude 04:46:32 28° 126° (SE) 821 -1.6 -14.6°
Drops below altitude 10° 04:49:27 10° 65° (ENE) 1,492 -0.1 -13.9°
Sets 04:51:43 0° 53° (NE) 2,351 0.7 -13.3°
